Location: Unspecified
(29.9680°N, 0.0000°E)
Time: 18:16:36
(UTC+00:00)

A-11 Canister half - Pass Details

Date: 27 June 2019
Orbit: 1526 x 1683 km, 47.3° (Epoch: 17 July)

Event Time Altitude Azimuth Distance (km) Brightness Sun altitude
Rises 09:17:04 0° 310° (NW) 4,682 11.3 52.5°
Reaches altitude 10° 09:20:08 10° 313° (NW) 3,694 10.8 53.2°
Maximum altitude 09:29:25 71° 37° (NE) 1,606 10.5 55.2°
Drops below altitude 10° 09:38:47 10° 121° (ESE) 3,731 11.7 57.2°
Sets 09:41:54 0° 123° (ESE) 4,730 12.0 57.9°
